Wind_Speed
11 10 5 1 1 1 1 3 3 6 3 2 19 3 8 10 2 3 20 16 18 17 17 14 13 13 13 14 14 14 13 12 13 12 13 14 14 13 14 14 12 11 11 11 11 12 12 12 13
10 6 1 0 2 3 3 3 8 3 9 23 14 11 7 4 5 20 21 20 16 17 17 15 14 13 13 15 15 15 14 14 14 14 15 14 14 14 14 14 14 13 12 11 12 12 12 12 12
8 1 1 1 1 1 2 3 12 16 12 6 7 10 5 4 14 25 18 22 17 17 15 15 15 15 14 14 15 14 14 15 15 15 16 14 14 14 15 15 15 14 14 13 13 12 12 12 12
3 1 1 0 2 1 4 6 15 12 12 7 18 7 7 5 17 16 23 20 18 17 16 15 15 15 15 14 14 15 15 15 15 15 14 14 14 12 13 13 13 13 14 13 13 13 13 13 11
2 0 1 1 2 2 6 12 7 4 6 10 5 5 10 11 14 21 21 19 17 17 16 15 15 15 14 13 14 15 14 15 14 14 13 13 11 11 10 11 11 12 14 13 12 13 14 15 13
2 2 2 3 6 6 6 8 4 7 11 13 15 13 4 12 18 20 20 18 16 16 16 15 14 14 14 14 15 15 15 15 13 12 12 12 11 9 8 9 9 10 11 14 13 15 16 15 13
1 1 1 3 6 4 3 5 5 6 13 8 15 6 11 21 19 20 19 17 16 15 15 15 15 15 14 14 15 15 14 13 12 11 10 9 9 9 8 7 8 10 11 12 13 16 15 13 10
3 1 3 4 3 4 2 2 13 7 5 15 11 7 11 26 21 20 19 18 16 16 14 15 15 16 16 15 15 14 13 13 12 10 11 11 10 9 9 8 7 10 13 15 15 15 13 11 11
8 4 3 3 2 5 5 3 3 7 15 3 3 23 27 27 22 20 19 19 17 17 15 15 16 16 16 16 15 14 13 13 12 11 10 9 10 10 10 9 9 11 14 18 16 15 13 11 12
2 3 5 3 5 3 16 7 0 6 5 10 23 28 28 26 22 20 21 22 20 19 18 17 17 17 16 15 14 14 13 13 12 12 12 10 11 11 12 12 12 13 18 22 17 16 14 13 12
6 4 4 5 7 8 9 17 6 14 5 5 27 32 30 27 22 19 20 20 20 20 19 19 18 16 14 13 14 16 13 10 10 11 12 12 11 12 13 14 14 16 22 23 18 18 14 12 10
4 6 9 12 11 8 8 7 7 8 3 10 28 31 31 28 23 20 20 19 21 21 21 20 17 16 15 14 15 14 11 12 13 11 11 10 11 11 11 13 15 18 20 20 18 16 14 12 10
2 4 7 10 11 9 14 11 10 2 6 12 26 29 29 28 23 20 17 17 20 23 22 21 18 16 15 16 15 13 12 10 7 8 10 10 10 11 13 14 15 18 19 18 17 16 13 10 7
4 12 12 10 10 9 7 4 1 5 11 20 28 29 29 27 24 22 20 21 21 22 22 20 18 15 15 16 16 13 10 11 11 11 11 10 7 11 15 16 15 16 17 17 15 13 11 7 4
12 6 5 3 5 4 16 2 5 13 16 22 30 30 32 29 26 22 23 22 21 23 21 18 17 16 16 16 16 13 12 13 13 11 12 12 11 13 15 15 14 14 13 12 12 10 8 5 4
3 4 3 3 4 6 5 4 10 16 21 21 24 30 33 32 26 20 24 22 22 21 20 19 18 17 16 16 14 13 13 13 13 12 12 13 11 13 15 14 15 13 11 11 10 9 7 5 4
5 2 2 2 7 6 4 4 6 21 16 15 26 29 33 33 29 22 20 23 23 21 20 18 19 19 18 15 12 12 14 15 14 13 13 15 13 13 13 14 14 12 10 9 8 9 7 5 3
4 3 1 4 4 4 7 6 5 19 18 18 25 25 29 34 34 27 22 23 25 23 20 17 19 19 17 14 11 12 14 16 15 11 10 11 12 13 12 13 15 11 8 7 9 8 6 4 4
4 4 3 2 4 4 7 3 10 19 16 16 20 27 28 34 32 30 28 25 26 25 23 20 20 20 19 20 15 12 14 17 16 12 12 9 14 14 11 13 13 12 9 8 6 7 5 3 5
3 1 1 1 4 3 3 6 4 14 20 24 25 25 29 33 33 34 33 31 29 27 26 23 20 19 23 21 18 13 13 17 16 13 10 9 10 7 9 9 11 13 12 12 7 5 6 4 4
2 3 2 2 4 2 5 5 5 7 15 22 27 31 28 32 35 35 36 36 33 31 29 27 21 21 26 23 19 15 15 16 15 14 13 13 9 7 7 7 4 8 13 13 10 10 8 7 8
3 7 3 7 3 2 1 4 5 8 15 12 24 33 31 31 37 36 38 38 39 34 30 26 20 23 28 26 22 17 17 19 16 12 14 15 11 8 8 5 5 3 8 13 14 13 13 12 12
6 7 5 4 3 2 2 2 6 9 11 19 25 34 39 35 39 40 39 40 41 36 32 28 22 26 30 29 24 21 17 17 17 13 12 12 11 10 10 8 7 6 5 12 16 15 14 15 15
3 4 7 5 3 2 6 5 5 6 14 13 20 27 36 37 40 41 39 40 43 39 35 32 25 25 32 33 26 25 19 18 20 17 12 10 12 10 9 8 7 6 6 9 14 15 14 12 11
5 6 2 2 1 5 3 2 10 4 6 10 21 30 36 38 40 40 40 43 46 44 40 36 29 30 32 35 29 27 22 20 21 17 11 10 9 12 10 9 7 8 6 8 11 13 14 12 11
7 9 5 6 4 4 3 6 6 9 14 22 26 37 38 42 43 44 43 44 48 46 44 39 34 32 32 34 36 30 28 23 21 19 15 10 8 7 11 7 6 7 7 7 9 10 11 13 14
4 4 7 6 2 1 4 7 9 8 6 9 21 29 38 44 43 44 44 45 47 48 46 42 37 34 32 33 34 34 32 29 25 21 19 15 11 8 10 9 8 8 8 8 9 9 11 12 12
9 8 4 2 7 5 4 4 6 9 8 3 8 23 31 39 40 40 42 42 44 47 44 43 37 37 33 32 34 39 36 31 27 24 22 18 15 13 12 13 10 8 9 10 11 10 11 11 11
2 3 4 5 4 6 1 6 7 8 5 5 8 19 29 34 38 41 42 39 40 42 44 44 42 40 37 32 34 40 41 35 30 26 25 22 20 18 17 17 14 12 14 14 14 13 13 14 14
7 9 7 5 4 1 4 7 4 8 5 9 13 20 24 29 31 34 38 38 37 39 39 42 45 42 39 35 33 39 42 39 35 31 28 26 22 22 21 20 19 17 16 18 18 16 16 17 16
Wind_Direction
136 145 150 80 75 88 341 55 94 98 92 120 160 159 114 39 73 173 141 150 152 145 141 144 139 136 131 130 135 144 136 136 131 135 131 127 124 124 127 125 128 131 132 133 126 117 111 109 104
145 148 143 73 83 73 307 347 123 123 125 117 96 99 57 71 82 137 145 150 153 145 141 142 140 140 134 133 131 134 133 131 129 127 124 117 115 114 119 123 123 129 134 135 133 127 120 111 112
142 151 324 344 44 112 130 61 117 119 120 116 104 76 74 89 132 138 146 150 153 146 142 144 144 141 140 137 132 130 129 128 127 124 125 125 125 127 117 115 114 117 123 132 138 137 134 126 121
154 30 296 153 42 63 128 139 125 122 81 86 108 71 71 150 132 142 146 151 153 148 145 143 145 143 139 131 130 135 132 130 126 125 125 125 123 120 124 121 121 120 123 130 137 144 138 131 122
11 309 330 144 40 51 98 140 146 85 94 115 110 93 102 143 144 143 148 152 154 148 146 145 147 144 141 140 141 136 133 128 121 125 127 127 127 133 129 127 127 127 129 132 132 137 133 126 119
69 38 22 38 94 84 88 63 35 83 107 110 98 102 97 148 148 150 153 152 153 148 148 144 148 148 140 138 137 137 133 132 126 130 132 135 137 138 133 128 134 139 138 140 140 138 134 125 117
94 74 48 326 96 56 61 26 43 57 106 92 125 104 139 153 152 151 155 153 153 154 150 148 146 144 135 135 132 130 131 130 130 132 128 127 132 131 133 141 148 155 157 147 148 143 141 129 114
120 106 21 29 56 67 50 75 124 77 69 132 94 153 159 160 157 155 154 155 153 153 153 148 146 140 136 135 132 130 132 131 129 126 129 133 133 119 126 133 141 155 158 159 155 147 145 122 108
49 47 3 344 85 117 60 128 33 93 133 44 143 153 154 157 156 160 158 161 158 155 154 151 148 143 140 137 135 132 134 130 126 123 123 124 117 100 111 121 143 157 162 162 153 150 146 131 115
87 156 193 219 136 116 74 64 165 112 60 74 108 142 152 156 159 165 167 166 162 158 153 152 152 147 143 140 138 134 128 126 128 132 128 124 109 99 96 100 119 139 152 156 153 153 148 134 118
176 199 145 179 142 108 99 49 46 125 68 166 145 153 158 164 162 168 168 167 160 155 157 154 155 154 153 149 145 139 132 126 128 135 133 124 115 101 88 86 102 128 145 154 151 148 137 128 117
188 213 168 168 163 127 123 93 64 51 20 157 160 158 163 169 168 163 163 166 166 159 157 154 154 154 154 157 151 145 140 135 127 124 134 132 128 118 108 100 105 120 133 146 145 144 144 139 129
208 124 120 164 162 146 121 111 120 63 78 164 169 169 172 171 173 164 157 164 164 159 161 153 151 150 151 153 151 148 141 143 156 163 152 139 134 137 128 125 117 123 131 139 143 147 148 150 147
140 102 116 119 119 117 111 142 11 149 127 168 177 179 181 181 179 172 168 163 164 163 159 157 152 151 152 154 153 151 158 144 130 141 157 153 161 151 149 146 137 137 139 142 146 149 158 166 173
123 101 85 73 120 107 112 27 232 180 166 161 180 186 188 189 189 184 175 168 160 163 163 163 160 159 157 157 157 156 145 149 137 131 142 147 140 142 161 165 161 166 167 167 167 167 173 187 207
46 49 98 195 183 154 145 247 206 186 176 183 181 188 192 193 194 189 186 177 176 168 167 161 165 158 158 163 165 165 158 151 139 128 141 148 147 146 144 148 155 161 169 174 172 165 162 172 145
18 227 135 201 189 153 168 256 170 187 192 206 185 189 194 197 200 197 191 189 182 182 175 173 172 163 159 161 170 170 168 155 143 135 146 150 140 148 158 158 154 154 162 162 168 176 182 180 170
178 139 183 229 200 171 203 239 167 186 197 206 194 192 194 203 201 200 199 196 193 187 188 176 179 176 174 181 184 184 178 161 154 145 142 161 172 162 169 173 173 168 164 165 181 191 198 212 253
146 163 202 222 167 143 222 258 180 191 194 202 212 199 202 209 208 202 205 202 199 199 195 189 186 187 191 182 182 180 181 175 169 164 156 143 152 159 163 180 185 192 180 172 176 189 191 233 256
184 188 354 94 153 157 207 261 173 193 202 199 201 201 204 213 215 208 210 209 209 206 204 201 197 201 196 192 185 186 187 181 177 180 171 160 167 167 172 184 190 198 202 202 204 205 206 233 255
243 162 193 209 144 265 132 294 198 207 208 214 210 209 208 214 217 215 212 213 210 212 210 206 203 206 199 197 198 188 190 189 190 190 193 194 189 196 189 180 182 208 212 206 214 220 228 249 266
233 184 206 130 120 231 212 275 237 200 207 215 216 210 215 218 221 220 217 214 213 212 211 207 206 205 200 200 205 204 202 199 195 191 200 206 210 198 207 226 249 243 209 205 214 226 239 255 263
225 165 182 143 126 46 199 105 267 167 212 222 219 219 215 218 219 218 217 217 213 212 211 206 205 202 203 205 209 213 212 212 208 208 211 216 210 202 208 225 212 218 220 217 221 231 239 256 261
172 95 50 53 90 334 227 173 253 194 207 212 223 219 210 212 217 219 219 218 213 212 212 207 207 207 206 206 211 217 219 213 209 215 221 225 211 210 212 205 201 215 243 232 229 231 240 252 256
100 83 359 1 30 221 263 167 246 225 213 198 196 207 207 206 210 214 215 215 213 212 209 208 209 208 207 209 211 216 218 217 211 221 230 234 229 229 226 211 222 234 245 242 235 237 242 250 261
176 153 158 178 196 251 100 238 251 218 232 219 216 205 201 202 206 212 217 215 214 214 211 208 210 211 212 213 218 221 218 217 217 223 231 242 255 265 236 232 234 236 246 255 249 250 249 251 256
188 157 180 104 26 64 232 291 302 281 223 218 199 185 192 203 203 211 215 215 215 215 214 211 212 213 215 216 215 218 218 221 224 225 225 238 239 252 246 245 236 246 252 256 260 257 257 256 261
159 169 102 359 164 205 277 267 241 305 298 328 190 180 188 197 202 201 210 213 216 217 218 216 217 217 217 219 219 218 219 221 227 229 220 234 232 239 245 239 244 257 263 263 266 262 261 258 261
91 164 65 126 141 166 215 262 222 265 286 209 197 187 180 191 195 199 208 213 217 219 218 220 220 219 220 220 223 219 219 221 226 227 230 231 236 237 240 239 245 261 269 270 269 263 260 257 258
163 179 159 134 223 212 165 261 332 285 310 187 178 181 193 203 201 203 208 208 213 220 220 223 223 222 223 221 223 223 220 224 228 231 231 233 236 233 236 239 247 255 269 262 264 266 262 264 265
Height
1501 1502 1504 1505 1512 1511 1509 1504 1496 1503 1507 1507 1511 1513 1517 1520 1521 1533 1528 1531 1534 1535 1537 1540 1541 1543 1545 1547 1547 1548 1549 1550 1551 1551 1552 1553 1554 1556 1557 1558 1560 1560 1562 1563 1564 1565 1566 1567 1568
1502 1504 1505 1505 1512 1518 1514 1499 1502 1501 1505 1508 1512 1514 1517 1523 1523 1524 1529 1533 1535 1537 1539 1541 1543 1544 1546 1547 1548 1549 1550 1551 1552 1553 1554 1556 1557 1558 1559 1560 1561 1562 1564 1565 1566 1567 1569 1569 1571
1503 1505 1506 1506 1510 1516 1514 1501 1501 1505 1507 1508 1514 1516 1520 1525 1525 1527 1530 1533 1537 1539 1541 1543 1545 1546 1548 1548 1551 1551 1552 1553 1554 1556 1557 1558 1559 1560 1561 1563 1564 1565 1566 1567 1568 1569 1570 1572 1573
1503 1506 1507 1508 1508 1500 1501 1502 1502 1505 1507 1509 1514 1520 1524 1527 1528 1530 1533 1536 1538 1540 1543 1545 1546 1548 1549 1551 1551 1554 1553 1556 1558 1558 1560 1560 1561 1563 1563 1564 1566 1567 1568 1569 1570 1571 1572 1575 1576
1505 1505 1507 1506 1504 1500 1500 1502 1504 1505 1508 1513 1514 1524 1527 1531 1532 1534 1535 1538 1541 1542 1545 1547 1548 1550 1552 1552 1554 1556 1557 1559 1560 1561 1562 1563 1564 1565 1565 1566 1567 1569 1570 1571 1572 1573 1575 1577 1579
1505 1506 1510 1514 1504 1501 1504 1507 1508 1508 1510 1513 1518 1521 1529 1531 1533 1535 1537 1540 1543 1545 1546 1548 1551 1552 1553 1554 1555 1557 1559 1560 1561 1562 1564 1565 1565 1565 1567 1568 1569 1571 1572 1573 1575 1576 1578 1581 1582
1505 1507 1515 1510 1506 1508 1509 1509 1512 1513 1513 1516 1517 1523 1530 1533 1535 1537 1539 1542 1545 1547 1549 1550 1552 1554 1555 1557 1558 1559 1560 1562 1563 1564 1565 1566 1566 1567 1568 1568 1570 1571 1573 1576 1577 1579 1582 1583 1584
1504 1506 1511 1510 1510 1517 1512 1512 1514 1514 1516 1518 1519 1525 1529 1531 1535 1538 1541 1543 1546 1548 1551 1552 1554 1556 1557 1559 1560 1561 1563 1564 1566 1567 1567 1567 1567 1568 1568 1569 1571 1573 1575 1577 1580 1582 1584 1586 1586
1503 1511 1517 1514 1513 1514 1511 1513 1514 1516 1518 1519 1519 1521 1527 1531 1537 1540 1542 1544 1547 1549 1552 1554 1556 1558 1559 1560 1562 1563 1565 1565 1567 1569 1570 1570 1570 1571 1571 1570 1571 1574 1576 1579 1582 1584 1586 1588 1589
1507 1514 1511 1508 1510 1512 1513 1514 1514 1518 1520 1523 1521 1525 1529 1534 1537 1539 1541 1543 1546 1549 1552 1555 1558 1560 1561 1562 1564 1565 1567 1568 1569 1570 1572 1572 1573 1573 1573 1573 1574 1575 1577 1581 1584 1587 1589 1591 1592
1507 1511 1506 1507 1508 1509 1513 1514 1515 1517 1521 1525 1523 1525 1530 1534 1537 1540 1542 1545 1547 1550 1553 1556 1559 1561 1563 1564 1565 1567 1569 1570 1572 1573 1574 1575 1576 1576 1577 1576 1577 1577 1579 1583 1586 1589 1592 1594 1595
1506 1502 1504 1506 1507 1508 1510 1516 1518 1520 1525 1526 1528 1529 1531 1535 1538 1540 1543 1546 1548 1551 1554 1556 1560 1562 1563 1565 1567 1570 1571 1572 1574 1575 1577 1578 1579 1580 1581 1581 1581 1583 1584 1587 1589 1592 1594 1596 1597
1501 1502 1505 1505 1506 1508 1512 1516 1516 1520 1523 1525 1531 1533 1535 1536 1540 1543 1545 1547 1550 1552 1555 1557 1561 1563 1564 1566 1569 1571 1573 1574 1575 1576 1578 1579 1582 1583 1584 1584 1585 1586 1588 1591 1593 1595 1596 1598 1599
1500 1502 1507 1509 1509 1512 1517 1517 1516 1517 1521 1525 1529 1533 1537 1538 1540 1543 1545 1548 1550 1554 1556 1559 1562 1565 1566 1567 1570 1573 1574 1576 1576 1578 1579 1581 1583 1585 1586 1587 1588 1590 1592 1594 1596 1598 1599 1600 1601
1503 1508 1510 1513 1512 1514 1515 1521 1517 1516 1521 1524 1527 1532 1536 1538 1541 1543 1547 1548 1550 1554 1557 1561 1563 1565 1568 1569 1571 1574 1576 1577 1579 1581 1582 1583 1584 1586 1587 1589 1590 1593 1595 1597 1598 1599 1600 1601 1602
1505 1509 1520 1512 1513 1515 1517 1522 1514 1517 1522 1524 1528 1531 1535 1539 1540 1543 1547 1548 1552 1554 1556 1559 1563 1566 1569 1571 1572 1575 1577 1579 1580 1582 1583 1584 1586 1587 1589 1590 1592 1594 1596 1598 1599 1600 1601 1602 1603
1512 1521 1519 1515 1510 1513 1517 1518 1515 1518 1522 1525 1527 1531 1533 1537 1540 1542 1545 1549 1552 1556 1558 1560 1562 1566 1569 1572 1574 1575 1577 1579 1581 1583 1584 1586 1587 1589 1591 1592 1594 1596 1597 1599 1600 1602 1602 1602 1603
1517 1517 1516 1515 1511 1511 1516 1517 1516 1517 1520 1522 1527 1530 1532 1534 1537 1541 1544 1548 1551 1555 1559 1561 1564 1567 1569 1572 1575 1576 1578 1579 1581 1583 1585 1587 1588 1590 1592 1593 1595 1597 1599 1600 1601 1602 1603 1604 1604
1502 1508 1512 1510 1509 1512 1514 1513 1513 1515 1519 1520 1523 1526 1529 1531 1535 1539 1542 1546 1550 1553 1557 1559 1563 1566 1568 1571 1574 1577 1578 1579 1582 1584 1586 1587 1590 1591 1593 1594 1596 1597 1599 1600 1601 1603 1603 1604 1604
1500 1504 1510 1510 1509 1511 1513 1512 1511 1512 1510 1514 1517 1521 1524 1529 1532 1535 1540 1543 1547 1550 1554 1558 1561 1565 1568 1572 1575 1578 1579 1580 1582 1584 1585 1587 1590 1592 1593 1595 1596 1596 1598 1600 1601 1603 1604 1604 1604
1501 1505 1506 1509 1510 1509 1514 1516 1510 1508 1510 1514 1514 1517 1521 1523 1527 1531 1536 1539 1543 1547 1551 1555 1558 1563 1567 1571 1574 1577 1579 1581 1582 1583 1585 1588 1589 1591 1593 1594 1595 1595 1597 1599 1600 1603 1604 1604 1603
1506 1495 1497 1508 1514 1527 1510 1531 1512 1504 1504 1507 1507 1510 1513 1517 1522 1526 1531 1535 1539 1543 1548 1553 1556 1559 1565 1569 1573 1576 1578 1579 1582 1583 1586 1587 1589 1591 1592 1593 1594 1595 1595 1597 1600 1602 1603 1603 1603
1498 1489 1494 1502 1515 1516 1517 1530 1507 1501 1507 1497 1497 1500 1503 1508 1514 1518 1523 1529 1534 1541 1545 1549 1554 1557 1562 1566 1571 1574 1577 1579 1581 1583 1585 1586 1588 1590 1592 1593 1594 1595 1596 1597 1598 1600 1601 1602 1602
1486 1491 1504 1513 1521 1539 1515 1521 1506 1502 1486 1488 1492 1495 1497 1502 1507 1512 1519 1525 1530 1536 1542 1546 1550 1554 1558 1563 1568 1571 1574 1578 1580 1582 1584 1585 1586 1589 1591 1592 1593 1594 1595 1596 1597 1598 1599 1600 1600
1489 1503 1531 1538 1543 1540 1514 1518 1494 1479 1475 1475 1478 1485 1489 1495 1502 1508 1513 1518 1524 1529 1536 1542 1547 1551 1555 1559 1564 1568 1572 1575 1578 1581 1582 1583 1585 1587 1589 1591 1592 1593 1594 1595 1595 1596 1597 1598 1599
1495 1501 1530 1536 1544 1529 1516 1518 1488 1466 1465 1467 1469 1472 1482 1488 1494 1500 1505 1510 1517 1523 1530 1536 1542 1548 1552 1556 1560 1565 1569 1572 1575 1578 1581 1582 1583 1585 1588 1589 1590 1591 1592 1593 1594 1594 1595 1596 1597
1494 1505 1496 1520 1527 1530 1516 1497 1472 1458 1460 1462 1464 1468 1473 1481 1486 1491 1500 1506 1511 1518 1524 1530 1537 1544 1548 1552 1556 1561 1565 1569 1572 1575 1578 1581 1583 1584 1586 1588 1589 1590 1591 1591 1592 1593 1594 1594 1595
1480 1485 1510 1523 1535 1537 1519 1506 1498 1470 1461 1460 1460 1461 1467 1473 1482 1488 1495 1502 1508 1514 1521 1528 1533 1539 1544 1549 1552 1557 1561 1565 1570 1573 1575 1578 1581 1583 1585 1587 1588 1589 1590 1590 1591 1592 1592 1593 1593
1487 1491 1501 1504 1516 1529 1526 1512 1473 1466 1461 1460 1459 1460 1463 1468 1476 1481 1487 1497 1505 1510 1515 1521 1528 1534 1540 1545 1549 1553 1558 1562 1566 1569 1572 1576 1579 1581 1583 1585 1586 1587 1588 1589 1590 1590 1591 1591 1592
1472 1482 1486 1510 1513 1517 1514 1501 1464 1461 1459 1459 1459 1457 1461 1465 1471 1478 1483 1490 1499 1505 1511 1514 1521 1527 1533 1539 1544 1548 1554 1559 1562 1565 1568 1572 1574 1578 1580 1582 1583 1584 1586 1587 1588 1589 1589 1590 1590